Regional Weather Roundup
Issued by NWS

Home | Current Version | Previous Version | Graphics & Text | Print | Product List | Glossary On
Versions: 1 2 3 4 5 6 7 8 9 10 11 12 13 14 15 16 17 18 19 20 21 22 23 24 25 26 27 28 29 30 31 32 33 34 35 36 37 38 39 40 41 42 43 44 45 46 47 48 49 50
000
ASUS43 KFSD 200302
RWRSD

WEATHER ROUNDUP FOR SOUTH DAKOTA
NATIONAL WEATHER SERVICE SIOUX FALLS SD
1000 PM CDT FRI SEP 19 2014

NOTE: "FAIR" INDICATES FEW OR NO CLOUDS BELOW 12,000 FEET WITH NO
SIGNIFICANT WEATHER AND/OR OBSTRUCTIONS TO VISIBILITY.


SDZ001>005-009-010-012>017-200400-
NORTHWEST AND NORTH CENTRAL SOUTH DAKOTA

CITY           SKY/WX    TMP DP  RH WIND       PRES   REMARKS
FAITH            N/A     66  50  56 NW13      29.87R
MOBRIDGE       CLOUDY    67  55  65 W3        29.77R
$$

SDZ012>016-024>037-041>051-057-063-072>074-200400-
SOUTHWEST AND SOUTH CENTRAL SOUTH DAKOTA

CITY           SKY/WX    TMP DP  RH WIND       PRES   REMARKS
RAPID CTY ARPT PTCLDY    66  48  52 N9        29.93R
PIERRE         MOCLDY    69  53  56 NW8       29.79R
CUSTER         CLEAR     60  46  59 NE5       30.06R
ELLSWORTH AFB  PTCLDY    64  49  58 NW9       29.94R
PHILIP         PTCLDY    69  51  52 N12       29.85R
PINE RIDGE     CLEAR     60  54  80 E5        29.92R
WINNER         FAIR      70  56  61 CALM      29.81R
$$

SDZ004>011-016>023-039-040-200400-
NORTHEAST SOUTH DAKOTA

CITY           SKY/WX    TMP DP  RH WIND       PRES   REMARKS
ABERDEEN       PTCLDY    70  54  56 W7        29.73R
WATERTOWN      CLEAR     64  61  90 SW7       29.73S
$$

SDZ017-020-022-023-036>040-048>070-200400-
SOUTHEAST SOUTH DAKOTA

CITY           SKY/WX    TMP DP  RH WIND       PRES   REMARKS
SIOUX FALLS    CLOUDY    75  64  68 NW5       29.72F
HURON          CLEAR     64  57  78 W5        29.74R
CHAMBERLAIN    PTCLDY    74  55  51 N7        29.78S
MITCHELL       PTCLDY    72  61  68 NW8       29.74S
YANKTON        CLOUDY    75  64  69 SW5       29.73R
$$

ABBREVIATIONS USED IN REMARKS
   TC - TEMPERATURE IN CELSIUS
  WCI - WIND CHILL INDEX
   HX - HEAT INDEX
  VSB - VISIBILITY



USA.gov is the U.S. government's official web portal to all federal, state and local government web resources and services.